Weather History for Moline, IL

Change the Weather History Date:

Sunday, November 11, 2012

  Actual Average Record
Temperature  
Mean Temperature 49 °F 43 °F  
Max Temperature 66 °F 52 °F 76 °F (1964)
Min Temperature 31 °F 33 °F 12 °F (1950)
Degree Days  
Heating Degree Days 16 22  
Month to date heating degree days 230 219  
Since 1 July heating degree days 832 701  
Cooling Degree Days 0 0  
Month to date cooling degree days 0 0  
Year to date cooling degree days 1208 1003  
Moisture  
Dew Point 45 °F    
Average Humidity 80    
Maximum Humidity 100    
Minimum Humidity 60    
Precipitation  
Precipitation 0.65 in 0.08 in 1.49 in (1881)
Month to date precipitation 0.86 0.97  
Year to date precipitation 24.53 34.19  
Snow  
Snow T in 0.00 in - ()
Month to date snowfall T 0.1  
Since 1 July snowfall T 0.1  
Since 1 September snowfall T 0.1  
Snow Depth 0.00 in    
Sea Level Pressure  
Sea Level Pressure 29.81 in    
Wind  
Wind Speed 15 mph (WSW)    
Max Wind Speed 29 mph    
Max Gust Speed 39 mph    
Visibility 7 miles    
Events Rain    
T = Trace of Precipitation, MM = Missing Value Source: NWS Daily Summary

Daily Weather History Graph

Daily Weather History Graph

Search for Another Location

Airport:

Trip Planner

Search our weather history database for the weather conditions in past years. The results will help you decide how hot, cold, wet, or windy it might be!

Date:

Astronomy

Nov. 11, 2012 Rise Set
Actual Time 6:46 AM CST 4:45 PM CST
Civil Twilight 6:16 AM CST 5:14 PM CST
Nautical Twilight 5:43 AM CST 5:48 PM CST
Astronomical Twilight 5:10 AM CST 6:20 PM CST
Moon 3:59 AM CST (11/11) 3:10 PM CST (11/11)
Length of Visible Light 10h 58m
Length of Day
9h 59m
Waning Crescent, 7% of the Moon is Illuminated
Nov 11
Waning Crescent
Nov 13
New
Nov 20
First Quarter
Nov 28
Full
Dec 6
Last Quarter

Hourly Weather History & Observations

Time (CST) Temp. Windchill Dew Point Humidity Pressure Visibility Wind Dir Wind Speed Gust Speed Precip Events Conditions
12:52 AM 62.1 °F - 48.9 °F 62% 29.80 in 10.0 mi South 15.0 mph 23.0 mph N/A   Clear
1:52 AM 62.1 °F - 50.0 °F 65% 29.82 in 10.0 mi SSW 9.2 mph 23.0 mph N/A   Clear
2:52 AM 62.1 °F - 50.0 °F 65% 29.82 in 10.0 mi South 12.7 mph 18.4 mph N/A   Partly Cloudy
3:52 AM 62.1 °F - 51.1 °F 67% 29.80 in 10.0 mi South 13.8 mph - N/A   Clear
4:52 AM 63.0 °F - 51.1 °F 65% 29.79 in 10.0 mi South 11.5 mph 19.6 mph N/A   Overcast
5:52 AM 59.0 °F - 50.0 °F 72% 29.78 in 10.0 mi SSE 16.1 mph - N/A   Overcast
6:52 AM 57.9 °F - 50.0 °F 75% 29.77 in 10.0 mi South 12.7 mph 21.9 mph N/A   Partly Cloudy
7:52 AM 60.1 °F - 51.1 °F 72% 29.75 in 10.0 mi SSE 16.1 mph 25.3 mph N/A   Scattered Clouds
8:52 AM 63.0 °F - 53.1 °F 70% 29.73 in 10.0 mi SSE 17.3 mph 29.9 mph N/A   Partly Cloudy
9:52 AM 63.0 °F - 54.0 °F 72% 29.72 in 10.0 mi South 19.6 mph 34.5 mph N/A   Mostly Cloudy
10:52 AM 64.0 °F - 54.0 °F 70% 29.70 in 10.0 mi South 24.2 mph 34.5 mph N/A   Overcast
11:52 AM 64.9 °F - 54.0 °F 68% 29.66 in 10.0 mi South 19.6 mph 28.8 mph N/A   Overcast
12:52 PM 64.9 °F - 54.0 °F 68% 29.64 in 10.0 mi SSW 20.7 mph 32.2 mph N/A   Overcast
1:07 PM 62.6 °F - 55.4 °F 77% 29.66 in 2.0 mi West 19.6 mph 27.6 mph 0.00 in Rain Light Rain
1:13 PM 60.8 °F - 57.2 °F 88% 29.67 in 4.0 mi West 19.6 mph 27.6 mph 0.01 in Rain Light Rain
1:20 PM 57.2 °F - 55.4 °F 94% 29.68 in 2.5 mi West 18.4 mph 26.5 mph 0.02 in Rain Light Rain
1:28 PM 55.4 °F - 53.6 °F 94% 29.70 in 2.5 mi WNW 20.7 mph 38.0 mph 0.02 in Rain Rain
1:42 PM 53.6 °F - 51.8 °F 94% 29.72 in 2.5 mi WNW 16.1 mph 33.4 mph 0.08 in Rain Rain
1:49 PM 53.6 °F - 51.8 °F 94% 29.73 in 2.5 mi West 17.3 mph 25.3 mph 0.09 in Rain Light Rain
1:52 PM 53.1 °F - 51.1 °F 93% 29.73 in 4.0 mi West 15.0 mph 25.3 mph 0.09 in Rain Light Rain
2:06 PM 53.6 °F - 51.8 °F 94% 29.71 in 7.0 mi WNW 11.5 mph 20.7 mph 0.00 in Rain Light Rain
2:29 PM 53.6 °F - 50.0 °F 88% 29.77 in 2.5 mi West 11.5 mph 18.4 mph 0.00 in Rain Light Rain
2:52 PM 51.1 °F - 48.9 °F 92% 29.76 in 6.0 mi West 11.5 mph - 0.04 in Rain Light Rain
3:48 PM 48.2 °F - 48.2 °F 100% 29.78 in 3.0 mi West 11.5 mph - 0.09 in Rain Rain
3:52 PM 48.9 °F - 48.0 °F 97% 29.80 in 4.0 mi West 13.8 mph - 0.10 in Rain Rain
4:28 PM 44.6 °F 37.2 °F 42.8 °F 93% 29.83 in 3.0 mi West 17.3 mph 24.2 mph 0.08 in Rain Rain
4:52 PM 42.1 °F 33.6 °F 39.9 °F 92% 29.84 in 3.0 mi West 18.4 mph - 0.14 in Rain Rain
5:11 PM 39.2 °F 30.5 °F 37.4 °F 93% 29.86 in 3.0 mi West 16.1 mph - 0.06 in Rain Rain
5:25 PM 39.2 °F 32.0 °F 37.4 °F 93% 29.86 in 4.0 mi West 11.5 mph - 0.13 in Rain Rain
5:34 PM 39.2 °F 31.6 °F 37.4 °F 93% 29.87 in 6.0 mi West 12.7 mph - 0.15 in Rain Rain
5:45 PM 39.2 °F 31.2 °F 37.4 °F 93% 29.88 in 6.0 mi West 13.8 mph - 0.17 in Rain Rain
5:52 PM 39.0 °F 31.0 °F 36.0 °F 89% 29.90 in 7.0 mi West 13.8 mph - 0.19 in Rain Rain
6:13 PM 37.4 °F 28.5 °F 35.6 °F 93% 29.92 in 8.0 mi West 15.0 mph - 0.02 in Rain Rain
6:52 PM 37.0 °F 31.0 °F 34.0 °F 89% 29.91 in 10.0 mi WNW 8.1 mph - 0.08 in Rain Light Rain
7:52 PM 36.0 °F 28.5 °F 33.1 °F 89% 29.95 in 10.0 mi WNW 10.4 mph - 0.01 in   Overcast
8:52 PM 35.1 °F 24.5 °F 30.9 °F 85% 29.98 in 10.0 mi WNW 18.4 mph 23.0 mph N/A   Overcast
9:16 PM 35.6 °F 27.5 °F 30.2 °F 81% 30.00 in 10.0 mi WNW 11.5 mph 24.2 mph N/A   Overcast
9:52 PM 34.0 °F 23.8 °F 28.0 °F 79% 30.03 in 10.0 mi WNW 16.1 mph 23.0 mph N/A   Overcast
10:52 PM 33.1 °F 23.0 °F 25.0 °F 72% 30.05 in 10.0 mi WNW 15.0 mph 21.9 mph N/A   Overcast
11:52 PM 32.0 °F 20.8 °F 24.1 °F 73% 30.04 in 10.0 mi WNW 17.3 mph 24.2 mph N/A   Overcast